{"data":{"norad_id":46384,"epoch":"2026-09-20T03:59:32.596800Z","epoch_age_seconds":50710,"freshness":"FRESH","line1":"1 46384U 20062BM  26263.16634950  .00056334  00000+0  38516-3 0  9994","line2":"2 46384  53.0309 116.2449 0003501 133.4366 226.6944 15.74253155335124","mean_motion":15.74253155,"eccentricity":0.0003501,"inclination_deg":53.0309,"raan_deg":116.2449,"arg_perigee_deg":133.4366,"mean_anomaly_deg":226.6944,"bstar":0.00038516,"rev_number":33512,"period_min":91.471946263941,"perigee_km":344.40287028591,"apogee_km":349.1116412438,"semimajor_km":6724.8942557649,"source":"CELESTRAK","updated_at":"2026-09-20T09:00:38.585010Z"}}